www.pogodaiklimat.ru

Погода и климат >> Архив погоды >> Бельгия >> Gent


ПОГОДА в Gent

  • Прогноз погоды в Gent
  • Монитор погоды в Gent
  • Климат города

АРХИВ ПОГОДЫ в Gent

Время (UTC), дата Ветер
(напр.,м/с)
 
Видим.   Явления Облачность Т
(С)
Тd
(С)
f
(%)
Тe
(С)
Тes
(С)
Комфортность P
(гПа)
Po
(гПа)
Тmin
(С)
Tmax
(С)
R
(мм)
R24
(мм)
S
(см)
07 14.06 ЮЗ 3
{7}
н/о н/о +16.7 +12.6 77 +16 +16 1014.4 1013.2
08 14.06 ЮЗ 4
{9}
н/о н/о +18.0 +12.3 69 +18 +18 1014.4 1013.2
09 14.06 Ю 4
{9}
н/о н/о +19.3 +12.6 65 +21 +21 комфорт 1014.5 1013.3
10 14.06 ЮЗ 4
{10}
н/о н/о +19.3 +13.3 68 +21 +21 комфорт 1014.3 1013.1
11 14.06 Ю 4
{10}
н/о н/о +18.9 +12.7 67 +20 +20 1014.1 1012.9
12 14.06 Ю 4
{12}
н/о н/о +18.6 +12.9 69 +19 +19 1013.8 1012.6
13 14.06 ЮЗ 4
{9}
н/о н/о +19.5 +13.9 70 +21 +21 комфорт 1014.3 1013.1
14 14.06 ЮЗ 4
{9}
н/о н/о +19.5 +13.7 69 +21 +21 комфорт 1013.8 1012.6
15 14.06 ЮЗ 5
{9}
н/о н/о +18.4 +14.5 78 +19 +19 1014.1 1012.9
16 14.06 ЮЗ 5
{9}
н/о н/о +18.1 +14.6 80 +18 +18 1014.4 1013.2
17 14.06 ЮЗ 3
{10}
н/о н/о +17.2 +15.3 89 +17 +17 1014.6 1013.4
18 14.06 ЮЗ 3
{10}
н/о н/о +17.4 +15.7 90 +17 +17 1014.8 1013.6 +19.9
19 14.06 ЮЗ 3
{5}
н/о н/о +17.6 +15.6 88 +18 +18 1015.0 1013.8
20 14.06 ЮЗ 3
{5}
н/о н/о +17.5 +15.4 87 +17 +17 1015.4 1014.2
21 14.06 З 2
{5}
н/о н/о +16.7 +15.0 90 +17 +17 1016.0 1014.8
22 14.06 ЮЗ 3
{5}
н/о н/о +16.1 +14.2 88 +16 +16 1016.3 1015.0
23 14.06 ЮЗ 3
{5}
н/о н/о +15.4 +13.5 88 +15 +15 1016.4 1015.1
00 15.06 ЮЗ 2
{5}
н/о н/о +14.6 +12.9 90 +14 +14 1016.3 1015.0
01 15.06 ЮЗ 2
{3}
н/о н/о +14.1 +12.6 91 +14 +14 1016.0 1014.7
02 15.06 ЮЗ 2
{4}
н/о н/о +13.9 +12.6 92 +13 +13 1016.1 1014.8
03 15.06 ЮЗ 1
{4}
н/о н/о +13.6 +12.4 92 +14 +14 1016.2 1014.9
04 15.06 ЮЗ 2
{3}
н/о н/о +13.4 +12.4 94 +13 +13 1016.3 1015.0
05 15.06 ЮЗ 1
{3}
н/о н/о +13.6 +12.6 94 +14 +14 1016.3 1015.0
06 15.06 ЮЗ 3
{4}
н/о н/о +14.2 +13.1 93 +13 +13 1016.7 1015.4 +13.3
07 15.06 ЮЗ 2
{4}
н/о н/о +15.5 +13.9 90 +15 +15 1016.9 1015.6
08 15.06 ЮЗ 2
{4}
н/о н/о +17.8 +14.4 80 +18 +18 1017.2 1016.0
09 15.06 ЮЗ 3
{4}
н/о н/о +19.2 +14.5 74 +21 +21 комфорт 1017.3 1016.1
10 15.06 ЮЗ 2
{4}
н/о н/о +19.9 +15.0 73 +23 +23 комфорт 1017.2 1016.0
11 15.06 ЮЗ 2
{3}
н/о н/о +21.7 +14.8 65 +25 +25 комфорт 1017.2 1016.0
12 15.06 З 1
{5}
н/о н/о +22.7 +13.0 54 +26 +26 жарко 1016.9 1015.7
13 15.06 З 3
{5}
н/о н/о +23.3 +13.3 53 +26 +26 жарко 1017.0 1015.8
14 15.06 ЮЗ 3
{6}
н/о н/о +23.2 +12.9 52 +26 +26 жарко 1016.7 1015.5
15 15.06 С 3
{10}
н/о н/о +23.7 +15.2 59 +27 +27 жарко 1016.4 1015.2
16 15.06 С 2
{6}
н/о н/о +22.3 +15.3 65 +26 +26 жарко 1016.5 1015.3
17 15.06 СЗ 6
{10}
н/о н/о +20.0 +14.9 72 +22 +22 комфорт 1016.8 1015.6
18 15.06 СЗ 5
{10}
н/о н/о +20.3 +13.9 67 +23 +23 комфорт 1016.8 1015.6 +25.0
19 15.06 СЗ 4
{7}
н/о н/о +19.0 +13.0 68 +20 +20 1016.8 1015.6
20 15.06 СЗ 3
{5}
н/о н/о +17.6 +13.0 74 +18 +18 1016.7 1015.5
21 15.06 СЗ 2
{4}
н/о н/о +16.5 +12.8 79 +17 +17 1016.9 1015.6
22 15.06 С 1
{3}
н/о н/о +15.8 +12.6 81 +16 +16 1016.7 1015.4
23 15.06 З 1
{2}
н/о н/о +15.2 +12.4 83 +16 +16 1016.6 1015.3
00 16.06 З 2 н/о н/о +15.9 +13.3 85 +16 +16 1016.9 1015.6
01 16.06 ЮЗ 2 н/о н/о +15.0 +11.9 82 +15 +15 1016.4 1015.1
02 16.06 ЮЗ 2 н/о н/о +14.7 +10.2 74 +14 +14 1016.0 1014.7
03 16.06 ЮЗ 3 н/о н/о +14.5 +9.5 72 +14 +14 1016.0 1014.7
04 16.06 ЮЗ 3
{6}
н/о н/о +13.8 +9.7 76 +13 +13 1015.8 1014.5
05 16.06 ЮЗ 3
{5}
н/о н/о +13.7 +10.3 80 +13 +13 1015.8 1014.5
06 16.06 ЮЗ 3
{6}
н/о н/о +14.5 +11.5 82 +14 +14 1015.6 1014.3 +13.7
07 16.06 ЮЗ 3
{5}
н/о н/о +15.4 +12.2 81 +15 +15 1015.9 1014.6
08 16.06 ЮЗ 4
{6}
н/о н/о +15.4 +12.7 84 +14 +14 1016.4 1015.1
09 16.06 ЮЗ 4
{7}
н/о н/о +16.2 +13.1 82 +15 +15 1016.4 1015.1
10 16.06 ЮЗ 2
{6}
н/о н/о +17.9 +13.1 73 +18 +18 1016.0 1014.8
11 16.06 ЮЗ 4
{7}
н/о н/о +19.6 +13.0 66 +21 +21 комфорт 1016.0 1014.8
12 16.06 ЮЗ 3
{7}
н/о н/о +20.9 +13.8 64 +24 +24 комфорт 1015.6 1014.4
13 16.06 З 5
{8}
н/о н/о +20.5 +12.7 61 +23 +23 комфорт 1015.6 1014.4
14 16.06 З 4
{8}
н/о н/о +20.6 +13.1 62 +23 +23 комфорт 1015.6 1014.4
15 16.06 З 5
{9}
н/о н/о +20.8 +11.5 55 +23 +23 комфорт 1015.6 1014.4
16 16.06 З 6
{9}
н/о н/о +20.4 +11.7 57 +22 +22 комфорт 1015.9 1014.7
17 16.06 ЮЗ 5
{10}
н/о н/о +20.5 +10.5 53 +22 +22 комфорт 1015.7 1014.5
18 16.06 З 5
{10}
н/о н/о +19.5 +10.6 56 +20 +20 1015.7 1014.5 +21.2
19 16.06 ЮЗ 5
{9}
н/о н/о +18.1 +10.2 60 +18 +18 1016.1 1014.9
20 16.06 ЮЗ 4
{8}
н/о н/о +17.5 +10.9 65 +17 +17 1016.1 1014.9
21 16.06 ЮЗ 2
{7}
н/о н/о +16.7 +11.1 70 +17 +17 1016.4 1015.1
22 16.06 ЮЗ 3 н/о н/о +16.8 +11.3 70 +17 +17 1016.2 1014.9
23 16.06 ЮЗ 4 н/о н/о +16.2 +11.9 76 +15 +15 1016.1 1014.8
00 17.06 ЮЗ 4 н/о н/о +15.4 +12.0 80 +14 +14 1016.2 1014.9
01 17.06 ЮЗ 4 н/о н/о +14.8 +12.1 84 +14 +14 1016.2 1014.9
02 17.06 ЮЗ 4 н/о н/о +14.8 +11.6 81 +14 +14 1016.2 1014.9
03 17.06 ЮЗ 5 н/о н/о +14.1 +11.3 83 +12 +12 1016.3 1015.0
04 17.06 ЮЗ 4
{8}
н/о н/о +13.8 +11.1 84 +12 +12 1016.5 1015.2
05 17.06 ЮЗ 4
{7}
н/о н/о +14.0 +11.5 85 +13 +13 1016.6 1015.3
06 17.06 ЮЗ 4
{10}
н/о н/о +14.6 +12.1 85 +13 +13 1016.8 1015.5 +13.7
07 17.06 ЮЗ 4
{7}
н/о н/о +15.1 +12.2 83 +14 +14 1017.5 1016.2
08 17.06 ЮЗ 4
{7}
н/о н/о +15.9 +12.2 79 +15 +15 1017.9 1016.6
09 17.06 ЮЗ 4
{8}
н/о н/о +16.7 +11.9 73 +16 +16 1018.3 1017.0
10 17.06 ЮЗ 5
{7}
н/о н/о +16.5 +11.1 70 +16 +16 1018.3 1017.0
11 17.06 З 5
{8}
н/о н/о +17.2 +11.6 70 +17 +17 1018.4 1017.1
12 17.06 ЮЗ 4
{8}
н/о н/о +18.4 +11.7 65 +19 +19 1018.6 1017.4
13 17.06 ЮЗ 4
{8}
н/о н/о +18.2 +11.7 66 +18 +18 1018.8 1017.6
14 17.06 ЮЗ 5
{9}
н/о н/о +17.8 +11.1 65 +17 +17 1018.9 1017.7
16 17.06 З 5
{7}
н/о н/о +18.9 +11.2 61 +19 +19 1019.0 1017.8
17 17.06 ЮЗ 4
{10}
н/о н/о +18.5 +10.9 61 +19 +19 1019.1 1017.9
18 17.06 З 5
{9}
н/о н/о +18.0 +11.2 64 +18 +18 1019.3 1018.1 +18.9
19 17.06 ЮЗ 4
{8}
н/о н/о +17.7 +11.7 68 +17 +17 1019.7 1018.4
20 17.06 ЮЗ 4
{8}
н/о н/о +17.2 +11.2 68 +17 +17 1019.8 1018.5
21 17.06 ЮЗ 4
{10}
н/о н/о +16.1 +12.0 77 +15 +15 1020.4 1019.1
22 17.06 ЮЗ 3 н/о н/о +16.2 +12.2 77 +16 +16 1019.9 1018.6
23 17.06 ЮЗ 4 н/о н/о +16.1 +12.4 79 +15 +15 1020.0 1018.7
00 18.06 ЮЗ 3 н/о н/о +16.3 +13.0 81 +16 +16 1019.6 1018.3
01 18.06 ЮЗ 3 н/о н/о +16.4 +13.3 82 +16 +16 1019.4 1018.1
02 18.06 ЮЗ 3 н/о н/о +16.5 +13.3 81 +16 +16 1019.1 1017.8
03 18.06 ЮЗ 3 н/о н/о +16.1 +13.4 84 +16 +16 1019.0 1017.7
04 18.06 ЮЗ 4
{7}
н/о н/о +15.9 +14.0 88 +15 +15 1019.4 1018.1
05 18.06 ЮЗ 3
{6}
н/о н/о +16.1 +14.6 91 +16 +16 1019.4 1018.1
06 18.06 ЮЗ 3
{7}
н/о н/о +16.5 +14.9 90 +16 +16 1019.4 1018.1 +15.8
07 18.06 ЮЗ 4
{7}
н/о н/о +16.9 +15.3 90 +16 +16 1019.5 1018.2
08 18.06 ЮЗ 4
{6}
н/о н/о +17.5 +15.9 90 +17 +17 1020.0 1018.7
09 18.06 З 5
{8}
н/о н/о +18.3 +15.8 85 +18 +18 1020.3 1019.1
10 18.06 З 5
{8}
н/о н/о +18.3 +15.0 81 +18 +18 1020.5 1019.3
11 18.06 ЮЗ 5
{10}
н/о н/о +18.9 +15.3 80 +20 +20 1020.8 1019.6
12 18.06 З 7
{10}
н/о н/о +18.6 +14.4 77 +19 +19 1021.1 1019.9
13 18.06 ЮЗ 5
{11}
н/о н/о +18.4 +14.4 78 +19 +19 1021.3 1020.1
14 18.06 ЮЗ 4
{10}
н/о н/о +18.3 +14.6 79 +19 +19 1021.6 1020.4
15 18.06 ЮЗ 6
{11}
н/о н/о +18.7 +13.9 74 +19 +19 1021.3 1020.1
16 18.06 З 5
{9}
н/о н/о +19.9 +14.2 70 +22 +22 комфорт 1021.0 1019.8
17 18.06 ЮЗ 4
{10}
н/о н/о +19.3 +13.8 70 +21 +21 комфорт 1021.2 1020.0
18 18.06 ЮЗ 6
{11}
н/о н/о +19.2 +13.5 70 +20 +20 1021.3 1020.1 +20.1
19 18.06 ЮЗ 5
{8}
н/о н/о +19.2 +13.5 70 +20 +20 1021.5 1020.3
20 18.06 ЮЗ 4
{9}
н/о н/о +17.6 +12.9 74 +17 +17 1021.5 1020.2
21 18.06 ЮЗ 5
{9}
н/о н/о +16.5 +12.6 78 +16 +16 1022.0 1020.7
22 18.06 ЮЗ 3 н/о н/о +15.7 +12.6 82 +15 +15 1021.9 1020.6
23 18.06 ЮЗ 3 н/о н/о +15.1 +12.7 86 +14 +14 1021.6 1020.3
00 19.06 ЮЗ 3 н/о н/о +14.7 +13.2 91 +14 +14 1021.7 1020.4
01 19.06 ЮЗ 4 н/о н/о +15.0 +14.1 94 +14 +14 1021.9 1020.6
02 19.06 ЮЗ 3 н/о н/о +15.3 +14.6 96 +15 +15 1022.0 1020.7
03 19.06 ЮЗ 4 н/о н/о +15.8 +15.1 96 +15 +15 1022.3 1021.0
04 19.06 ЮЗ 3
{6}
н/о н/о +16.3 +15.5 95 +16 +16 1022.7 1021.4
05 19.06 ЮЗ 4
{6}
н/о н/о +16.7 +15.7 94 +16 +16 1023.1 1021.8
06 19.06 ЮЗ 4
{7}
н/о н/о +17.1 +16.0 93 +17 +17 1023.4 1022.1 +14.6
07 19.06 ЮЗ 4
{6}
н/о н/о +17.4 +16.2 93 +17 +17 1023.9 1022.6
08 19.06 З 4
{5}
н/о н/о +17.6 +16.4 93 +17 +17 1024.5 1023.2
09 19.06 ЮЗ 2
{5}
н/о н/о +17.6 +16.9 96 +18 +18 1024.7 1023.4
10 19.06 З 3
{4}
н/о н/о +17.7 +17.0 96 +18 +18 1024.8 1023.5
11 19.06 СЗ 1
{4}
н/о н/о +18.1 +17.5 96 +19 +19 1025.1 1023.8 0.2
12 19.06 З 3
{5}
н/о н/о +18.8 +17.4 92 +20 +20 1025.2 1023.9
13 19.06 СЗ 2
{5}
н/о н/о +19.1 +17.4 90 +21 +21 комфорт 1025.1 1023.9
14 19.06 З 2
{3}
н/о н/о +19.2 +17.5 90 +22 +22 комфорт 1025.0 1023.8
15 19.06 СЗ 2
{4}
н/о н/о +20.0 +17.4 85 +23 +23 комфорт 1024.8 1023.6
16 19.06 З 2
{3}
н/о н/о +20.0 +17.1 83 +23 +23 комфорт 1024.6 1023.4
17 19.06 ЮЗ 2
{6}
н/о н/о +20.1 +16.8 81 +24 +24 комфорт 1024.4 1023.2
18 19.06 ЮЗ 3
{5}
н/о н/о +19.8 +16.5 81 +22 +22 комфорт 1024.4 1023.2 +20.5
19 19.06 ЮЗ 2
{4}
н/о н/о +19.3 +16.6 84 +22 +22 комфорт 1024.3 1023.1
20 19.06 ЮЗ 2
{4}
н/о н/о +19.1 +16.6 85 +21 +21 комфорт 1024.3 1023.1
21 19.06 ЮЗ 2
{4}
н/о н/о +18.8 +16.4 86 +21 +21 комфорт 1024.6 1023.3
22 19.06 ЮЗ 3 н/о н/о +18.0 +16.0 88 +18 +18 1024.5 1023.2
23 19.06 ЮЗ 3 н/о н/о +17.1 +15.5 90 +17 +17 1024.4 1023.1
00 20.06 ЮЗ 2 н/о н/о +16.4 +15.3 93 +16 +16 1024.1 1022.8
01 20.06 ЮЗ 2 н/о н/о +16.4 +15.5 94 +16 +16 1023.8 1022.5
02 20.06 ЮЗ 2 н/о н/о +16.7 +15.7 94 +17 +17 1023.5 1022.2
03 20.06 ЮЗ 3 н/о н/о +16.6 +15.5 93 +16 +16 1023.1 1021.8
04 20.06 ЮЗ 3
{5}
н/о н/о +16.7 +15.5 93 +16 +16 1023.0 1021.7
05 20.06 ЮЗ 2
{5}
н/о н/о +16.6 +15.6 94 +17 +17 1022.9 1021.6
06 20.06 ЮЗ 3
{6}
н/о н/о +16.6 +15.7 94 +16 +16 1022.7 1021.4 +16.1
07 20.06 ЮЗ 3
{6}
н/о н/о +17.0 +15.8 93 +17 +17 1022.9 1021.6
08 20.06 ЮЗ 3
{6}
н/о н/о +17.7 +16.1 90 +18 +18 1023.1 1021.8
09 20.06 ЮЗ 4
{6}
н/о н/о +19.2 +16.8 86 +21 +21 комфорт 1022.7 1021.5
10 20.06 ЮЗ 3
{7}
н/о н/о +20.2 +16.9 81 +23 +23 комфорт 1022.6 1021.4
11 20.06 З 5
{7}
н/о н/о +20.5 +16.7 79 +24 +24 комфорт 1022.5 1021.3
12 20.06 ЮЗ 5
{8}
н/о н/о +22.3 +17.4 74 +27 +27 душно 1021.9 1020.7
13 20.06 ЮЗ 4
{8}
н/о н/о +23.7 +17.6 69 +28 +28 душно 1021.4 1020.2
14 20.06 ЮЗ 3
{7}
н/о н/о +25.1 +18.0 65 +29 +29 душно 1021.0 1019.8
15 20.06 З 4
{8}
н/о н/о +25.6 +17.6 61 +30 +30 душно 1020.7 1019.5
16 20.06 З 4
{7}
н/о н/о +26.0 +17.5 59 +30 +30 душно 1020.2 1019.0
17 20.06 З 4
{8}
н/о н/о +25.9 +17.0 58 +30 +30 душно 1019.8 1018.6
18 20.06 З 5
{8}
н/о н/о +25.7 +16.6 57 +29 +29 душно 1019.5 1018.3 +26.2
19 20.06 З 3
{8}
н/о н/о +24.7 +17.4 64 +29 +29 душно 1019.0 1017.8
20 20.06 ЮЗ 3
{6}
н/о н/о +22.7 +16.5 68 +27 +27 душно 1018.8 1017.6
21 20.06 ЮЗ 2
{8}
н/о н/о +20.6 +16.3 76 +24 +24 комфорт 1018.7 1017.5
22 20.06 ЮЗ 3
{6}
н/о н/о +19.5 +16.1 81 +22 +22 комфорт 1018.5 1017.3
23 20.06 З 3
{5}
н/о н/о +18.5 +15.9 85 +19 +19 1018.3 1017.1
00 21.06 ЮЗ 4 н/о н/о +17.5 +15.7 89 +17 +17 1017.9 1016.7
01 21.06 ЮЗ 3 н/о н/о +16.9 +15.5 91 +17 +17 1017.7 1016.4
02 21.06 З 4 н/о н/о +16.6 +15.5 93 +16 +16 1017.6 1016.3
03 21.06 З 4 н/о н/о +16.7 +15.7 94 +16 +16 1017.5 1016.2
04 21.06 СЗ 5
{7}
н/о н/о +16.6 +15.5 93 +16 +16 1017.8 1016.5
05 21.06 СЗ 7
{11}
н/о н/о +15.5 +13.5 88 +14 +14 1018.9 1017.6
06 21.06 СЗ 9
{13}
н/о н/о +14.9 +11.8 82 +13 +13 1019.6 1018.3 +14.9
07 21.06 СЗ 9
{13}
н/о н/о +14.7 +8.4 66 +12 +12 1020.8 1019.5

 

Местоположение метеостанции Gent (Бельгия): широта 51.18 долгота 3.82 высота над уровнем моря 13 м.

В архиве по умолчанию представлена погода в Gent за последнюю неделю. Архивные данные за месяц целиком и за предыдущие месяцы, начиная с января 2011 года, Вы можете получить, выбрав интересующий диапазон дат из раскрывающегося списка и нажав кнопку "Ввод!".


*Определитесь, кто Вы:
робот инопланетянин человек

Внимание! Время в таблицах - всемирное. Для получения местного времени необходимо прибавить поправку, которая в Gent равна 1 ч.

Смотрите также архив погоды в соседних городах и на ближайших метеорологических станциях:

Погода в Westdorpe (Нидерланды) (7 км)
Погода в Melle (Бельгия) (22 км)
Погода в Hoofdplaat (Нидерланды) (25 км)
Погода в Semmerzake (Бельгия) (30 км)
Погода в Hansweert (Нидерланды) (33 км)
Погода в Vlissingen (Нидерланды) (34 км)
Погода в Cadzand (Нидерланды) (38 км)
Погода в Tholen (Нидерланды) (43 км)
Погода в Antwerpen (Бельгия) (45 км)
Погода в Zeebrugge (Бельгия) (46 км)

Пояснения к столбцам:

Ветер - указаны скорость ветра в м/с - средняя за 10 мин, порывы в срок и между сроками (в фигурных скобках) и направление, откуда дует ветер: С - северный, СВ - северо-восточный, В - восточный, ЮВ - юго-восточный, Ю - южный, ЮЗ - юго-западный, З - западный, СЗ - северо-западный.
Видимость - горизонтальная дальность видимости в метрах или километрах. При видимости от 1 до 10 км при отсутствии осадков обычно наблюдается дымка, при ухудшении видимости до 1 км и менее - туман. В сухую погоду видимость может ухудшаться дымом, пылью или мглою.
Явления - указаны атмосферные явления, наблюдавшиеся в срок или в последний час перед сроком; фигурными скобками обозначены явления, наблюдавшиеся между сроками (за 1-3 часа до срока); квадратными скобками обозначены град или гололедные отложения с указанием их диаметра в мм.
Облачность - указаны через наклонную черту общая и нижняя облачность в баллах и высота нижней границы облаков в метрах; квадратными скобками обозначены формы облаков: Ci - перистые, Cs - перисто-слоистые, Cc - перисто-кучевые, Ac - высококучевые, As - высокослоистые, Sc - слоисто-кучевые, Ns - слоисто-дождевые, Cu - кучевые, Cb - кучево-дождевые. Подробнее классификацию облаков см. в Атласе облаков (PDF).
T - Температура воздуха - температура, измеренная на высоте 2 м над землей.
Td - Температура точки росы - температура, при понижении до которой содержащийся в воздухе водяной пар достигнет насыщения.
f - Относительная влажность воздуха - влажноcть воздуха, измеренная на высоте 2 м над землей.
Te - Эффективная температура - температура, которую ощущает одетый по сезону человек в тени. Характеристика душности погоды. При расчете учитывается влияние влажности воздуха и скорости ветра на теплоощущения человека.
Tes - Эффективная температура на солнце - температура, которую ощущает человек, с поправкой на солнечный нагрев. Характеристика знойности погоды. Зависит от высоты солнца над горизонтом, облачности и скорости ветра. Ночью, в пасмурную погоду, а также при ветре 12 м/с и более поправка равна нулю.
P - Атмосферное давление - приведенное к уровню моря атмосферное давление.
Po - Атмосферное давление - измеренное на уровне метеостанции атмосферное давление.
Tmin - Минимальная температура - минимум температуры воздуха на высоте 2 м над землей.
Tmax - Максимальная температура - максимум температуры воздуха на высоте 2 м над землей.
R - Количество осадков - Количество выпавших осадков за период времени, мм. При наведении курсора мыши на число - период времени, за который выпало указанное количество осадков.
R24 - Количество осадков - Количество выпавших осадков за 24 часа, мм.
S - Снежный покров - Высота снежного покрова, см. При наведении курсора мыши на число - состояние снежного покрова и степень покрытия местности в баллах.